STARLINK-11459, 62464

Orbit data source: Space-Track

STARLINK-11459, 62464 is a payload satellite owned by SpaceX/Seattle (US) in LEO that was launched on Tue, 31 Dec 2024 UTC via an FALCON 9 launch vehicle from the Air Force Eastern Test Range (AFETR). Payload-class satellites include a variety of spacecraft equipped with specific instruments for various scientific and technological missions. These include communications satellites like Starlink; space stations such as the ISS; scientific satellites like the Hubble; Earth observation satellites from companies like Planet Labs, Umbra, and HawkEye 360; GPS; miniature CubeSats for education and research; and military/defense satellites.

Loading next visibility...
Identifier
62464, 2024-254C
Orbit
LEO
Country
Flag of USUS
Related business
Manufacturer
SpaceX/Seattle
Mission
Operational Commercial Communications
Bus & Motor
STARLINK V2MD, Unknown motor
Mass
960 kg wet, ~910 kg dry
Launch date (UTC)
2024-12-31 (9 months ago)
Launch vehicle
FALCON 9
Launch site
Air Force Eastern Test Range (AFETR)
Object type
Payload
Rocket body
Debris
Shape & HBR
Box + 2 Pan, 14.5 m
Radar Cross Section
36.964 m², Large (>1 m²)

Expand to show TLE details & history
Last TLE update: 17 hours ago

TLE from 17 hours ago
0 STARLINK-11459
1 62464U 24254C   25258.26434820  .00427931  00000-0  31505-2 0  9992
2 62464  43.0016 200.1881 0001965 278.8705  81.1940 15.70985963 41805
Epoch: 2025-09-15T06:20Z
TLE epoch observation values (Epoch: 2025-09-15T06:20:39.684Z)
Latitude
-0.00003°
Longitude
110.55122°
Altitude
355.647 km
Speed
7.698 km/s
True Right ascension
13h 20m 45s
True Declination
0° 00' 00"
Sunlit
Object was in daylight at epoch
Visualization orbit readout
Latitude
Unknown
Longitude
Unknown
Altitude
Unknown
Speed
Unknown
Apparent Right ascension
Unknown
Apparent Declination
Unknown
Sunlit
N/A
Visualization observer readout
Local Sidereal Time
16:26:20
Azimuth
Unknown
Elevation
Unknown
Doppler factor
Unknown
Orbital elements
Apogee altitude
359.383 km
Perigee altitude
356.736 km
Semi-major axis
6,736.196 km
Eccentricity
0.0002
Inclination
43.0016°
RAAN
200.1881°
Arg. of periapsis
278.8705°
True anomaly
81.21625°
Mean anomaly
81.194°
Eccentric anomaly
81.20513°
Mean motion
3.92574 °/min
Orbital period
91.7 mins
BSTAR
0.0031505
Loading maneuver chart data...
Computing Atmospheric mass density...
Loading historical data...
Loading historical data...
Loading historical data...
Loading historical data...
Loading historical data...
Loading historical data...
Loading historical data...

Documentation

Showing up to 5 results
|